Weather History for KHOP - November, 2012

Change the Weather History Date:

Saturday, November 24, 2012

  Actual Average Record
Temperature  
Mean Temperature 32 °F -  
Max Temperature 40 °F 55 °F 71 °F (2006)
Min Temperature 24 °F 35 °F 18 °F (2013)
Degree Days  
Heating Degree Days 33    
Moisture  
Dew Point 20 °F    
Average Humidity 62    
Maximum Humidity 76    
Minimum Humidity 41    
Precipitation  
Precipitation 0.00 in - - ()
Sea Level Pressure  
Sea Level Pressure 30.27 in    
Wind  
Wind Speed 2 mph (NW)    
Max Wind Speed 9 mph    
Max Gust Speed -    
Visibility 10 miles    
Events      
Averages and records for this station are not official NWS values.
T = Trace of Precipitation, MM = Missing Value Source: NWS Daily Summary

Daily Weather History Graph

Daily Weather History Graph

Search for Another Location

Airport or City:

Trip Planner

Search our weather history database for the weather conditions in past years. The results will help you decide how hot, cold, wet, or windy it might be!

Date:

Astronomy

Nov. 24, 2012 Rise Set
Actual Time 6:37 AM CST 4:35 PM CST
Civil Twilight 6:09 AM CST 5:04 PM CST
Nautical Twilight 5:37 AM CST 5:35 PM CST
Astronomical Twilight 5:06 AM CST 6:06 PM CST
Moon 2:16 PM CST (11/24) 2:58 AM CST (11/24)
Length of Visible Light 10h 54m
Length of Day
9h 58m
Waxing Gibbous, 87% of the Moon is Illuminated
Nov 24
Waxing Gibbous
Nov 28
Full
Dec 6
Last Quarter
Dec 13
New
Dec 19
First Quarter

Hourly Weather History & Observations

Time (CST) Temp. Windchill Dew Point Humidity Pressure Visibility Wind Dir Wind Speed Gust Speed Precip Events Conditions
12:55 AM 31.3 °F - 20.8 °F 65% 30.30 in 10.0 mi Calm Calm - N/A   Clear
1:55 AM 29.1 °F - 20.8 °F 71% 30.30 in 10.0 mi Calm Calm - N/A   Clear
2:55 AM 28.9 °F - 19.9 °F 69% 30.31 in 10.0 mi Calm Calm - N/A   Clear
3:55 AM 27.5 °F - 19.4 °F 72% 30.29 in 10.0 mi Calm Calm - N/A   Clear
4:55 AM 26.4 °F 22.4 °F 18.9 °F 73% 30.31 in 10.0 mi NW 3.5 mph - N/A   Clear
5:55 AM 25.5 °F 19.9 °F 18.9 °F 76% 30.32 in 10.0 mi NW 4.6 mph - N/A   Clear
6:55 AM 24.8 °F 20.5 °F 18.1 °F 76% 30.33 in 10.0 mi WNW 3.5 mph - N/A   Clear
7:55 AM 28.9 °F 22.8 °F 19.6 °F 68% 30.34 in 10.0 mi NW 5.8 mph - N/A   Clear
8:55 AM 31.1 °F 26.4 °F 19.4 °F 62% 30.36 in 10.0 mi Variable 4.6 mph - N/A   Clear
9:55 AM 33.8 °F 26.4 °F 20.1 °F 57% 30.35 in 10.0 mi WNW 9.2 mph - N/A   Clear
10:55 AM 36.1 °F 31.4 °F 20.5 °F 53% 30.34 in 10.0 mi Variable 5.8 mph - N/A   Clear
11:55 AM 38.1 °F 35.7 °F 19.8 °F 48% 30.30 in 10.0 mi NNW 3.5 mph - N/A   Clear
12:55 PM 39.9 °F 35.1 °F 19.4 °F 44% 30.29 in 10.0 mi West 6.9 mph - N/A   Clear
1:55 PM 40.8 °F 35.6 °F 18.9 °F 41% 30.27 in 10.0 mi NNW 8.1 mph - N/A   Clear
2:55 PM 38.7 °F 35.2 °F 18.1 °F 44% 30.25 in 10.0 mi NW 4.6 mph - N/A   Clear
3:55 PM 38.7 °F 36.3 °F 19.2 °F 46% 30.25 in 10.0 mi WNW 3.5 mph - N/A   Clear
4:55 PM 35.4 °F - 18.7 °F 51% 30.24 in 10.0 mi Calm Calm - N/A   Clear
5:55 PM 32.2 °F - 19.2 °F 59% 30.24 in 10.0 mi Calm Calm - N/A   Clear
6:55 PM 31.8 °F - 19.2 °F 60% 30.22 in 10.0 mi Calm Calm - N/A   Clear
7:55 PM 29.5 °F - 20.8 °F 70% 30.22 in 10.0 mi Calm Calm - N/A   Clear
8:55 PM 29.1 °F - 20.8 °F 71% 30.20 in 10.0 mi Calm Calm - N/A   Clear
9:55 PM 29.5 °F - 20.3 °F 69% 30.19 in 10.0 mi Calm Calm - N/A   Clear
10:55 PM 28.4 °F - 20.1 °F 71% 30.19 in 10.0 mi Calm Calm - N/A   Clear
11:55 PM 29.7 °F 22.8 °F 20.7 °F 69% 30.16 in 10.0 mi SSE 6.9 mph - N/A   Clear